HB9DDE-10 Weather Reports


time (UTC)temp
C
wind
direction
speed
KPH
gust
KPH
rain 1hr
cm
rain 24hr
cm
rain mn
cm
humidity
%
barometer
mb
20260506233352 6 147 0.0 1.6 0.00 2.31 0.00 97 1012.8
20260506232845 6 147 0.0 0.0 0.00 2.31 0.00 96 1012.8
20260506232335 6 147 0.0 0.0 0.00 2.31 0.00 96 1012.8
20260506231848 6 147 0.0 0.0 0.00 2.31 0.00 96 1012.8
20260506231336 6 147 0.0 0.0 0.00 2.31 0.00 96 1012.7
20260506230846 6 147 0.0 0.0 0.00 2.31 0.00 96 1012.7
20260506230355 6 147 0.0 0.0 0.00 2.31 0.00 96 1012.7
20260506225843 6 147 0.0 0.0 0.00 2.31 0.00 96 1012.7
20260506225352 6 147 0.0 0.0 0.00 2.31 0.00 96 1012.6
20260506224843 6 147 0.0 0.0 0.00 2.31 0.00 96 1012.6
20260506224336 6 147 0.0 0.0 0.00 2.31 0.00 96 1012.6
20260506223848 6 147 0.0 0.0 0.00 2.31 0.00 96 1012.6
20260506223336 6 147 0.0 0.0 0.00 2.31 0.00 96 1012.7
20260506222847 6 147 0.0 0.0 0.00 2.31 0.00 96 1012.6
20260506222336 6 147 0.0 0.0 0.00 2.31 0.00 96 1012.6
20260506221847 6 147 0.0 0.0 0.00 2.31 0.00 96 1012.6
20260506221336 6 147 0.0 0.0 0.00 2.31 0.00 96 1012.5
20260506220846 6 147 0.0 0.0 0.00 2.31 0.00 95 1012.5
20260506220341 6 147 0.0 0.0 0.00 2.31 0.46 96 1012.6
20260506215851 6 147 0.0 0.0 0.00 2.31 0.46 96 1012.6
20260506215341 6 147 0.0 0.0 0.00 2.31 0.46 96 1012.6
20260506214850 6 147 0.0 0.0 0.00 2.31 0.46 95 1012.6
20260506214341 6 147 0.0 0.0 0.00 2.31 0.46 95 1012.4
20260506213850 6 147 0.0 0.0 0.00 2.31 0.46 95 1012.5
20260506213439 6 147 0.0 0.0 0.00 2.31 0.46 95 1012.5
20260506212842 6 147 0.0 1.6 0.00 2.31 0.46 95 1012.5
20260506212352 7 147 0.0 1.6 0.00 2.31 0.46 95 1012.6
20260506211843 7 147 0.0 0.0 0.00 2.31 0.46 95 1012.4
20260506211336 7 147 0.0 0.0 0.00 2.31 0.46 95 1012.3
20260506210846 7 147 0.0 0.0 0.00 2.31 0.46 95 1012.3
20260506210336 7 147 0.0 0.0 0.00 2.31 0.46 95 1012.4
20260506205846 7 147 0.0 0.0 0.00 2.31 0.46 95 1012.3
20260506205337 7 147 0.0 0.0 0.00 2.31 0.46 95 1012.3
20260506204846 7 147 0.0 0.0 0.00 2.31 0.46 95 1012.3
20260506204353 7 147 0.0 0.0 0.00 2.31 0.46 95 1012.3
20260506203842 7 147 0.0 0.0 0.00 2.31 0.46 94 1012.2
20260506202846 7 147 0.0 0.0 0.00 2.31 0.46 94 1012.1
20260506202335 7 147 0.0 0.0 0.00 2.31 0.46 94 1012.0
20260506201844 7 147 0.0 0.0 0.00 2.31 0.46 94 1012.0
20260506201353 7 147 0.0 0.0 0.00 2.31 0.46 94 1011.8
20260506200841 7 147 0.0 0.0 0.00 2.31 0.46 94 1011.7
20260506200349 7 147 0.0 0.0 0.00 2.31 0.46 94 1011.7
20260506195839 7 147 0.0 0.0 0.00 2.31 0.46 93 1011.6
20260506195350 7 147 0.0 0.0 0.00 2.31 0.46 93 1011.6
20260506194840 8 147 0.0 0.0 0.00 2.31 0.46 93 1011.4
20260506194335 8 147 0.0 0.0 0.00 2.31 0.46 92 1011.4
20260506193844 8 147 0.0 0.0 0.00 2.31 0.46 92 1011.3
20260506193334 8 147 0.0 0.0 0.00 2.31 0.46 92 1011.3
20260506192846 8 147 0.0 0.0 0.00 2.31 0.46 92 1011.3
20260506192334 8 147 0.0 3.2 0.00 2.31 0.46 91 1011.2
20260506191844 8 147 0.0 3.2 0.00 2.31 0.46 91 1011.2
20260506191351 8 147 1.6 3.2 0.00 2.31 0.46 90 1011.2
20260506190839 9 147 1.6 6.4 0.00 2.31 0.46 89 1011.1
20260506190349 9 147 3.2 6.4 0.00 2.31 0.46 89 1011.0
20260506185842 10 147 3.2 6.4 0.00 2.31 0.46 89 1011.0
20260506185351 9 147 1.6 8.0 0.00 2.31 0.46 89 1011.0
20260506184842 9 153 3.2 6.4 0.00 2.31 0.46 89 1011.0
20260506184352 10 148 3.2 4.8 0.00 2.31 0.46 89 1011.0
20260506183841 10 141 3.2 4.8 0.00 2.31 0.46 87 1010.9
20260506183352 10 141 3.2 4.8 0.00 2.31 0.46 86 1010.8
20260506182840 10 146 1.6 6.4 0.00 2.31 0.46 85 1010.7
20260506182351 10 131 1.6 8.0 0.00 2.31 0.46 85 1010.6
20260506181844 10 163 3.2 8.0 0.00 2.31 0.46 85 1010.6
20260506181334 11 81 1.6 8.0 0.00 2.31 0.46 84 1010.7
20260506180845 11 160 3.2 6.4 0.00 2.31 0.46 84 1010.6
20260506180354 11 142 1.6 6.4 0.00 2.31 0.46 83 1010.5
20260506175843 11 141 3.2 8.0 0.00 2.31 0.46 82 1010.5
20260506175353 11 90 1.6 8.0 0.00 2.31 0.46 82 1010.5
20260506174841 11 152 1.6 6.4 0.00 2.31 0.46 81 1010.5
20260506174352 12 86 1.6 4.8 0.00 2.31 0.46 82 1010.5
20260506173842 11 142 0.0 6.4 0.00 2.31 0.46 83 1010.4
20260506173335 11 145 1.6 8.0 0.00 2.31 0.46 84 1010.3
20260506172844 11 153 0.0 8.0 0.00 2.31 0.46 84 1010.3
20260506172335 11 167 1.6 6.4 0.00 2.31 0.46 84 1010.3
20260506171845 11 169 1.6 3.2 0.00 2.31 0.46 85 1010.2
20260506171353 11 131 0.0 4.8 0.00 2.31 0.46 85 1010.2
20260506170842 11 131 1.6 4.8 0.00 2.31 0.46 85 1010.2
20260506170352 11 133 0.0 6.4 0.00 2.31 0.46 85 1010.1
20260506165842 11 155 1.6 9.7 0.00 2.31 0.46 85 1010.1
20260506165335 11 177 1.6 9.7 0.00 2.31 0.46 85 1010.1
20260506164847 11 171 1.6 4.8 0.00 2.31 0.46 85 1010.1
20260506164336 11 144 0.0 4.8 0.00 2.31 0.46 85 1010.1
20260506163846 11 143 0.0 6.4 0.00 2.31 0.46 85 1010.1
20260506163335 11 143 1.6 8.0 0.00 2.31 0.46 84 1010.3
20260506162847 11 179 3.2 9.7 0.00 2.31 0.46 83 1010.3
20260506162336 11 148 3.2 9.7 0.00 2.31 0.46 83 1010.2
20260506161846 11 146 1.6 6.4 0.00 2.31 0.46 84 1010.1
20260506161336 11 145 1.6 8.0 0.00 2.31 0.46 85 1010.2
20260506160850 11 186 3.2 8.0 0.00 2.31 0.46 84 1010.1
20260506160340 11 225 3.2 8.0 0.00 2.31 0.46 84 1010.1
20260506155850 11 186 1.6 4.8 0.00 2.31 0.46 84 1010.1
20260506155340 11 217 0.0 6.4 0.00 2.31 0.46 84 1010.1
20260506154851 11 150 1.6 6.4 0.00 2.31 0.46 84 1010.1
20260506154341 11 188 1.6 8.0 0.00 2.31 0.46 84 1010.1
20260506153852 11 204 3.2 8.0 0.00 2.31 0.46 85 1010.2
20260506153341 11 134 1.6 6.4 0.00 2.31 0.46 85 1010.2
20260506152835 11 165 3.2 6.4 0.00 2.31 0.46 85 1010.2
20260506152345 11 117 1.6 6.4 0.00 2.31 0.46 85 1010.2
20260506151835 11 161 1.6 12.9 0.00 2.31 0.46 85 1010.2
20260506151346 11 150 4.8 12.9 0.00 2.31 0.46 86 1010.1
20260506150836 11 106 1.6 8.0 0.00 2.31 0.46 87 1010.2
20260506150346 11 150 1.6 8.0 0.00 2.31 0.46 87 1010.2
20260506145835 11 146 0.0 4.8 0.00 2.31 0.46 88 1010.1
20260506145345 11 260 0.0 6.4 0.00 2.31 0.46 88 1010.1
20260506144935 11 134 1.6 8.0 0.00 2.31 0.46 88 1010.1
20260506144340 11 172 1.6 8.0 0.00 2.31 0.46 87 1010.1
20260506143834 11 147 0.0 6.4 0.00 2.31 0.46 88 1010.0
20260506143344 11 132 1.6 9.7 0.00 2.31 0.46 87 1010.1
20260506142854 11 124 3.2 11.3 0.00 2.31 0.46 86 1010.0
20260506142343 11 104 3.2 11.3 0.00 2.31 0.46 87 1010.0
20260506141853 11 138 3.2 8.0 0.00 2.31 0.46 87 1010.0
20260506141342 11 132 1.6 11.3 0.00 2.31 0.46 87 1010.0
20260506140852 11 143 3.2 11.3 0.00 2.31 0.46 87 1010.0
20260506140342 11 117 4.8 11.3 0.00 2.31 0.46 87 1009.9
20260506135851 11 148 1.6 9.7 0.00 2.31 0.46 87 1009.9
20260506135347 11 156 1.6 8.0 0.00 2.31 0.46 88 1009.9
20260506134933 11 158 3.2 11.3 0.00 2.31 0.46 88 1009.9
20260506134341 10 228 4.8 11.3 0.00 2.31 0.46 88 1009.9
20260506133851 10 323 0.0 11.3 0.00 2.31 0.46 90 1009.9
20260506133341 10 87 1.6 9.7 0.00 2.31 0.46 90 1009.8
20260506132850 10 108 1.6 11.3 0.00 2.31 0.46 91 1009.9
20260506132338 10 153 3.2 9.7 0.00 2.31 0.46 91 1009.8
20260506131848 10 151 3.2 9.7 0.00 2.31 0.46 92 1009.8
20260506131338 10 130 1.6 9.7 0.20 2.31 0.46 92 1009.8
20260506130848 10 146 4.8 9.7 0.41 2.31 0.46 92 1009.8
20260506130342 10 177 1.6 9.7 0.61 2.31 0.46 93 1009.9
20260506125851 10 121 1.6 9.7 0.71 2.31 0.46 93 1009.8
20260506125341 10 126 0.0 9.7 0.99 2.31 0.46 93 1009.9
20260506124851 10 104 1.6 9.7 1.19 2.31 0.46 93 1009.9
20260506124340 10 147 3.2 9.7 1.30 2.31 0.46 93 1009.8
20260506123851 10 146 0.0 9.7 1.40 2.31 0.46 93 1009.8
20260506123341 10 153 3.2 9.7 1.50 2.31 0.46 93 1009.7
20260506122851 10 144 1.6 8.0 1.60 2.31 0.46 93 1009.7
20260506122341 10 228 1.6 8.0 1.70 2.31 0.46 93 1009.6
20260506121835 10 229 3.2 12.9 1.80 2.31 0.46 93 1009.6
20260506121346 10 190 4.8 14.5 1.70 2.11 0.43 93 1009.6
20260506120854 10 160 3.2 9.7 1.60 1.91 0.38 93 1009.5
20260506120344 10 123 1.6 12.9 1.40 1.70 0.33 93 1009.5
20260506115853 10 171 3.2 12.9 1.30 1.60 0.33 93 1009.4
20260506115341 10 129 3.2 16.1 0.99 1.30 0.25 92 1009.5
20260506114851 10 272 4.8 16.1 0.79 1.09 0.23 91 1009.3
20260506114340 10 155 6.4 14.5 0.71 0.99 0.20 91 1009.3
20260506113834 10 199 4.8 17.7 0.61 0.89 0.18 91 1009.2
20260506113347 10 214 4.8 17.7 0.51 0.79 0.15 91 1009.1
20260506112835 11 296 6.4 17.7 0.41 0.71 0.15 92 1009.0
20260506112345 11 32 4.8 14.5 0.30 0.61 0.13 91 1008.8
20260506111834 11 210 6.4 17.7 0.20 0.51 0.10 90 1008.8
20260506111345 11 153 8.0 17.7 0.10 0.41 0.08 90 1008.8
20260506110853 11 129 4.8 12.9 0.00 0.30 0.05 89 1008.6
20260506110342 12 169 4.8 12.9 0.00 0.61 0.05 88 1008.5
20260506105851 12 136 3.2 12.9 0.00 0.61 0.05 88 1008.5
20260506105344 12 155 3.2 11.3 0.00 0.61 0.05 89 1008.5
20260506104835 12 217 1.6 8.0 0.00 0.61 0.05 88 1008.4
20260506104345 12 149 1.6 6.4 0.00 0.61 0.05 88 1008.4
20260506103836 12 60 1.6 6.4 0.00 0.61 0.05 87 1008.4
20260506103345 12 290 1.6 6.4 0.00 0.61 0.05 87 1008.4
20260506102836 12 115 1.6 6.4 0.00 0.61 0.05 87 1008.3
20260506102345 12 295 1.6 6.4 0.10 0.61 0.05 87 1008.3
20260506101851 12 303 1.6 4.8 0.10 0.61 0.05 88 1008.3
20260506101342 12 300 1.6 4.8 0.20 0.61 0.05 88 1008.2
20260506100836 12 167 0.0 4.8 0.20 0.61 0.05 89 1008.2
20260506100346 12 195 0.0 4.8 0.20 0.61 0.05 90 1008.2
20260506095835 12 317 0.0 4.8 0.30 0.61 0.05 90 1008.1
20260506095345 12 298 1.6 4.8 0.30 0.61 0.05 91 1008.0
20260506094836 12 308 1.6 4.8 0.30 0.61 0.05 90 1008.0
20260506094346 12 296 0.0 4.8 0.30 0.61 0.05 90 1008.1
20260506093836 12 295 0.0 3.2 0.30 0.61 0.05 91 1008.2
20260506093346 12 142 0.0 1.6 0.30 0.61 0.05 91 1008.2
20260506091349 11 137 0.0 1.6 0.10 0.41 0.03 92 1008.0
20260506090837 11 269 0.0 1.6 0.10 0.41 0.03 91 1008.0
20260506090349 11 269 0.0 1.6 0.10 0.41 0.03 91 1007.8
20260506085350 11 269 0.0 1.6 0.00 0.30 0.00 90 1007.8
20260506084840 11 269 0.0 1.6 0.00 0.30 0.00 90 1007.9
20260506084353 11 269 0.0 1.6 0.00 0.30 0.00 89 1007.8
20260506083843 11 269 0.0 1.6 0.00 0.30 0.00 89 1007.8
20260506083353 11 269 0.0 1.6 0.00 0.30 0.00 88 1007.8
20260506082841 12 153 0.0 0.0 0.00 0.30 0.00 88 1007.8
20260506082351 12 153 0.0 0.0 0.00 0.30 0.00 88 1007.8
20260506081841 12 153 0.0 0.0 0.00 0.30 0.00 87 1007.8
20260506081350 12 153 0.0 0.0 0.00 0.30 0.00 87 1007.7
20260506080840 12 153 0.0 0.0 0.00 0.30 0.00 88 1007.7
20260506080350 12 153 0.0 1.6 0.00 0.41 0.00 88 1007.7
20260506073352 11 153 0.0 0.0 0.00 0.41 0.00 89 1007.6
20260506072840 11 153 0.0 0.0 0.00 0.41 0.00 90 1007.6
20260506072351 11 153 0.0 0.0 0.00 0.41 0.00 90 1007.7
20260506071845 11 153 0.0 0.0 0.00 0.41 0.00 91 1007.7
20260506071335 11 153 0.0 0.0 0.00 0.41 0.00 92 1007.7
20260506070846 11 153 0.0 0.0 0.00 0.41 0.00 92 1007.8
20260506070335 11 153 0.0 0.0 0.00 0.51 0.00 93 1007.8
20260506062337 10 153 0.0 0.0 0.00 0.51 0.00 95 1007.7
20260506061848 10 152 0.0 0.0 0.00 0.51 0.00 95 1007.6
20260506061337 10 153 0.0 0.0 0.00 0.51 0.00 96 1007.6
20260506060847 9 153 0.0 0.0 0.00 0.51 0.00 96 1007.6
20260506060336 9 153 0.0 0.0 0.00 0.51 0.00 96 1007.7
20260506051349 8 153 0.0 0.0 0.00 0.51 0.00 96 1007.9
20260506050843 8 153 0.0 0.0 0.00 0.51 0.00 95 1007.9
20260506044851 8 153 0.0 0.0 0.00 0.51 0.00 95 1007.8
20260506044340 8 153 0.0 0.0 0.00 0.51 0.00 95 1007.8
20260506043850 8 153 0.0 0.0 0.00 0.51 0.00 95 1007.8
20260506043342 8 153 0.0 0.0 0.00 0.51 0.00 95 1007.8
20260506042835 8 153 0.0 1.6 0.00 0.51 0.00 95 1007.8
20260506042346 8 153 0.0 1.6 0.00 0.51 0.00 95 1007.7
20260506041836 8 153 0.0 1.6 0.00 0.51 0.00 94 1007.8
20260506041348 8 153 0.0 4.8 0.00 0.51 0.00 94 1007.8
20260506040837 8 149 3.2 4.8 0.00 0.51 0.00 93 1007.7
20260506040348 8 146 0.0 1.6 0.00 0.51 0.00 93 1007.7
20260506035838 9 146 0.0 0.0 0.00 0.51 0.00 93 1007.8
20260506035347 9 146 0.0 0.0 0.00 0.51 0.00 93 1007.8
20260506034840 9 146 0.0 1.6 0.00 0.51 0.00 93 1007.9
20260506034351 9 146 0.0 1.6 0.00 0.51 0.00 93 1008.0
20260506033842 9 146 0.0 1.6 0.00 0.51 0.00 93 1008.1
20260506033351 9 146 0.0 1.6 0.00 0.51 0.00 93 1008.1
20260506032840 9 146 0.0 1.6 0.00 0.51 0.00 94 1008.2
20260506032350 9 100 0.0 1.6 0.00 0.51 0.00 94 1008.2
20260506031840 9 167 0.0 1.6 0.00 0.51 0.00 94 1008.2
20260506031351 9 110 0.0 1.6 0.00 0.51 0.00 94 1008.3
20260506030840 9 110 0.0 1.6 0.00 0.51 0.00 94 1008.3
20260506030354 9 155 0.0 0.0 0.00 0.51 0.00 94 1008.3
20260506025844 9 107 0.0 1.6 0.00 0.51 0.00 94 1008.4
20260506025353 9 107 0.0 1.6 0.00 0.51 0.00 94 1008.5
20260506024843 9 124 0.0 1.6 0.00 0.51 0.00 94 1008.6
20260506024352 9 144 0.0 1.6 0.00 0.51 0.00 94 1008.6
20260506023840 9 144 0.0 0.0 0.00 0.51 0.00 94 1008.8
20260506023350 9 144 0.0 1.6 0.00 0.51 0.00 94 1008.8
20260506022839 9 144 0.0 1.6 0.00 0.51 0.00 94 1008.8
20260506022349 9 144 0.0 1.6 0.00 0.51 0.00 94 1008.8
20260506021843 9 144 0.0 4.8 0.00 0.51 0.00 94 1008.9
20260506021353 9 144 1.6 4.8 0.00 0.51 0.00 94 1008.8
20260506020843 9 144 0.0 1.6 0.00 0.51 0.00 94 1008.8
20260506020353 9 144 0.0 0.0 0.00 0.51 0.00 93 1008.8
20260506015843 9 144 0.0 0.0 0.00 0.51 0.00 93 1008.9
20260506015352 9 144 0.0 0.0 0.00 0.51 0.00 92 1008.9
20260506014840 10 144 0.0 0.0 0.00 0.51 0.00 92 1009.0
20260506014351 10 144 0.0 0.0 0.00 0.51 0.00 92 1009.1
20260506013846 10 144 0.0 0.0 0.00 0.51 0.00 92 1009.2
20260506013335 10 144 0.0 0.0 0.00 0.51 0.00 92 1009.3
20260506012847 10 144 0.0 1.6 0.00 0.51 0.00 92 1009.3
20260506012335 10 144 0.0 6.4 0.00 0.51 0.00 92 1009.5
20260506011848 10 144 0.0 6.4 0.00 0.51 0.00 93 1009.6
20260506011338 10 152 1.6 6.4 0.00 0.51 0.00 93 1009.7
20260506010848 10 153 3.2 6.4 0.00 0.51 0.00 93 1009.7
20260506010337 10 144 1.6 6.4 0.00 0.51 0.00 93 1009.7
20260506005845 10 144 1.6 6.4 0.00 0.51 0.00 94 1009.8
20260506005339 10 149 1.6 3.2 0.00 0.51 0.00 94 1009.7
20260506004850 9 132 0.0 1.6 0.00 0.51 0.00 93 1009.7
20260506004340 10 132 0.0 1.6 0.00 0.51 0.00 93 1009.8
20260506003850 10 132 0.0 1.6 0.00 0.51 0.00 93 1009.9
20260506003338 10 132 0.0 0.0 0.00 0.51 0.00 93 1009.9
20260506002848 10 132 0.0 3.2 0.00 0.51 0.00 93 1010.0
20260506002338 10 132 0.0 3.2 0.00 0.51 0.00 93 1010.1
20260506001848 10 134 1.6 1.6 0.00 0.51 0.00 93 1010.1
20260506001341 10 134 0.0 1.6 0.00 0.51 0.00 93 1010.0
20260506000851 10 134 0.0 0.0 0.00 0.51 0.00 93 1010.0
20260506000341 10 134 0.0 0.0 0.00 0.51 0.00 93 1010.0
20260505235850 10 134 0.0 1.6 0.00 0.51 0.00 93 1010.1
20260505235339 10 134 0.0 1.6 0.00 0.51 0.00 93 1010.1
20260505234850 10 134 0.0 1.6 0.00 0.51 0.00 93 1010.1
20260505234339 10 134 0.0 1.6 0.00 0.51 0.00 93 1010.1
20260505233849 10 134 0.0 1.6 0.00 0.51 0.00 93 1010.2